Location: Chuathbaluk
(61.5726°N, 159.2454°W)
Time: 23:43:45
(UTC+00:00)

Transit 2A - Pass Details

Date: 27 November 2020
Orbit: 598 x 960 km, 66.7° (Epoch: 20 January)

Event Time Altitude Azimuth Distance (km) Brightness Sun altitude
Rises 03:12:39 0° 158° (SSE) 3,618 9.5 -10.4°
Reaches altitude 10° 03:16:32 10° 135° (SE) 2,643 8.6 -10.8°
Maximum altitude 03:19:33 14° 105° (ESE) 2,321 8.0 -11.2°
Enters shadow 03:21:16 13° 87° (E) 2,398 8.0 -11.3°
Drops below altitude 10° 03:22:29 10° 76° (ENE) 2,564 - -11.5°
Sets 03:26:08 0° 52° (NE) 3,436 - -11.9°
